Location: Unspecified
(48.7670°N, 0.0000°E)
Time: 08:49:56
(UTC+00:00)

Altair - Pass Details

Date: 29 June 2019
Orbit: 1501 x 1683 km, 47.2° (Epoch: 24 August)

Event Time Altitude Azimuth Distance (km) Brightness Sun altitude
Rises 02:17:00 0° 285° (WNW) 4,859 10.0 -12.0°
Reaches altitude 10° 02:22:32 10° 261° (W) 3,901 9.2 -11.6°
Maximum altitude 02:26:27 13° 237° (WSW) 3,679 8.9 -11.2°
Enters shadow 02:28:20 12° 225° (SW) 3,742 8.9 -11.0°
Drops below altitude 10° 02:30:23 10° 213° (SSW) 3,928 - -10.9°
Sets 02:36:03 0° 189° (S) 4,921 - -10.3°
